User: anonymous   Login
Location: Vancouver
(49.2500°N, 123.1330°W)
Time: 11:02:33
(UTC-08:00)
Language:

ISS - Orbit

View from above orbital plane
View from above orbital plane
View from above satellite
View from above satellite

Ground track
Ground track

The orbit data is extracted from the following two-line orbital elements,

1 25544U 98067A   14325.60809845  .00030075  00000-0  50145-3 0  4410
2 25544 051.6456 039.1516 0006738 051.0063 309.2045 15.51317840915758
Epoch (UTC): 21 November 2014 14:35:39
Eccentricity: 0.0006738
inclination: 51.6456°
perigee height: 408 km
apogee height: 417 km
right ascension of ascending node: 39.1516°
argument of perigee: 51.0063°
revolutions per day: 15.51317840
mean anomaly at epoch: 309.2045°
orbit number at epoch: 91575

The dashed part of the orbit path shows where the satellite is in the earth's shadow,  

DLR